Location: Ailly
(50.0793°N, 1.9944°E)
Time: 22:07:12
(UTC+00:00)

Meteor 1-11 Rocket - Pass Details

Date: 15 January 2026
Orbit: 830 x 914 km, 81.2° (Epoch: 18 February)

Event Time Altitude Azimuth Distance (km) Brightness Sun altitude
Exits shadow 05:04:37 41° 335° (NNW) 1,254 4.3 -25.0°
Drops below altitude 10° 05:08:41 10° 5° (N) 2,530 6.2 -24.4°
Sets 05:11:10 0° 10° (N) 3,458 7.0 -24.0°
